Date,TemperatureHighF,TemperatureAvgF,TemperatureLowF,DewpointHighF,DewpointAvgF,DewpointLowF,HumidityHigh,HumidityAvg,HumidityLow,PressureMaxIn,PressureMinIn,WindSpeedMaxMPH,WindSpeedAvgMPH,GustSpeedMaxMPH,PrecipitationSumIn
2013-1-1,55.2,35.1,25.2,0.0,0.0,0.0,0,0,100,0.00,0.00,6,1,7,0.00
2013-1-2,58.9,37.3,26.1,0.0,0.0,0.0,0,0,100,0.00,0.00,7,1,8,0.00
2013-1-3,56.0,36.9,24.6,0.0,0.0,0.0,0,0,100,0.00,0.00,8,1,10,0.00
2013-1-4,64.3,44.7,35.7,0.0,0.0,0.0,0,0,100,0.00,0.00,7,2,7,0.00
2013-1-5,45.5,42.4,40.1,0.0,0.0,0.0,0,0,100,0.00,0.00,9,2,11,0.00
2013-1-6,46.0,42.3,38.1,0.0,0.0,0.0,0,0,100,0.00,0.00,9,3,11,0.00
2013-1-7,51.1,46.3,40.0,0.0,0.0,0.0,0,0,100,0.00,0.00,19,4,25,0.00
2013-1-8,52.7,46.5,41.0,0.0,0.0,0.0,0,0,100,0.00,0.00,13,4,16,0.00
2013-1-9,48.8,41.3,35.6,0.0,0.0,0.0,0,0,100,0.00,0.00,12,3,13,0.00
2013-1-10,41.2,35.8,29.6,0.0,0.0,0.0,0,0,100,0.00,0.00,5,1,6,0.00
2013-1-11,47.2,33.1,25.9,0.0,0.0,0.0,0,0,100,0.00,0.00,8,2,8,0.00
2013-1-12,54.0,31.5,23.5,0.0,0.0,0.0,0,0,100,0.00,0.00,8,1,11,0.00
2013-1-13,48.7,30.6,22.7,0.0,0.0,0.0,0,0,100,0.00,0.00,4,1,5,0.00
2013-1-14,42.2,33.6,29.2,0.0,0.0,0.0,0,0,100,0.00,0.00,6,1,7,0.00
2013-1-15,56.1,37.8,28.2,0.0,0.0,0.0,0,0,100,0.00,0.00,6,1,7,0.00
2013-1-16,56.1,35.8,26.8,0.0,0.0,0.0,0,0,100,0.00,0.00,5,1,6,0.00
2013-1-17,40.0,33.6,28.1,0.0,0.0,0.0,0,0,100,0.00,0.00,5,1,5,0.00
2013-1-18,41.7,35.2,31.8,0.0,0.0,0.0,0,0,100,0.00,0.00,6,2,7,0.00
2013-1-19,38.8,34.5,31.5,0.0,0.0,0.0,0,0,100,0.00,0.00,6,2,7,0.00
2013-1-20,50.6,35.5,30.1,0.0,0.0,0.0,0,0,100,0.00,0.00,6,1,7,0.00
2013-1-21,41.0,35.0,31.1,0.0,0.0,0.0,0,0,100,0.00,0.00,8,2,9,0.00
2013-1-22,46.4,35.7,30.2,0.0,0.0,0.0,0,0,100,0.00,0.00,4,1,5,0.00
2013-1-23,44.2,40.9,37.3,0.0,0.0,0.0,0,0,100,0.00,0.00,8,2,9,0.00
2013-1-24,50.9,42.8,37.0,0.0,0.0,0.0,0,0,100,0.00,0.00,6,2,9,0.00
2013-1-25,66.4,46.8,38.3,0.0,0.0,0.0,0,0,100,0.00,0.00,7,2,9,0.00
2013-1-26,48.3,42.1,38.8,0.0,0.0,0.0,0,0,100,0.00,0.00,11,3,14,0.00
2013-1-27,43.8,41.3,39.4,0.0,0.0,0.0,0,0,100,0.00,0.00,12,3,14,0.00
2013-1-28,42.1,40.4,38.1,0.0,0.0,0.0,0,0,100,0.00,0.00,7,2,8,0.00
2013-1-29,48.3,44.2,40.8,0.0,0.0,0.0,0,0,100,0.00,0.00,11,3,12,0.00
2013-1-30,48.3,46.4,43.5,0.0,0.0,0.0,0,0,100,0.00,0.00,7,2,9,0.00
2013-1-31,57.7,47.5,45.0,0.0,0.0,0.0,0,0,100,0.00,0.00,9,2,11,0.00
2013-2-1,61.9,47.0,41.0,0.0,0.0,0.0,0,0,100,0.00,0.00,8,2,10,0.00
2013-2-2,45.8,41.4,38.0,0.0,0.0,0.0,0,0,100,0.00,0.00,8,2,8,0.00
2013-2-3,52.1,43.4,37.5,0.0,0.0,0.0,0,0,100,0.00,0.00,7,2,8,0.00
2013-2-4,60.0,47.3,42.7,0.0,0.0,0.0,0,0,100,0.00,0.00,8,2,8,0.00
2013-2-5,58.0,46.2,42.1,0.0,0.0,0.0,0,0,100,0.00,0.00,13,3,16,0.00
2013-2-6,57.3,45.6,42.1,0.0,0.0,0.0,0,0,100,0.00,0.00,12,3,13,0.00
2013-2-7,62.9,46.1,35.9,0.0,0.0,0.0,0,0,100,0.00,0.00,14,3,19,0.00
2013-2-8,53.6,42.1,34.1,0.0,0.0,0.0,0,0,100,0.00,0.00,6,1,7,0.00
2013-2-9,50.7,43.0,39.7,0.0,0.0,0.0,0,0,100,0.00,0.00,5,1,5,0.00
2013-2-10,60.5,43.2,33.8,0.0,0.0,0.0,0,0,100,0.00,0.00,6,2,8,0.00
2013-2-11,51.1,44.2,38.6,0.0,0.0,0.0,0,0,100,0.00,0.00,6,1,8,0.00
2013-2-12,51.8,47.0,44.0,0.0,0.0,0.0,0,0,100,0.00,0.00,15,3,18,0.00
2013-2-13,51.1,46.8,43.7,0.0,0.0,0.0,0,0,100,0.00,0.00,11,2,13,0.00
2013-2-14,56.9,46.4,41.9,0.0,0.0,0.0,0,0,100,0.00,0.00,6,2,8,0.00
2013-2-15,66.3,47.9,37.8,0.0,0.0,0.0,0,0,100,0.00,0.00,8,2,10,0.00
2013-2-16,64.2,46.7,37.2,0.0,0.0,0.0,0,0,100,0.00,0.00,14,3,18,0.00
2013-2-17,60.7,43.1,39.3,0.0,0.0,0.0,0,0,100,0.00,0.00,7,2,8,0.00
2013-2-18,57.9,43.2,38.4,0.0,0.0,0.0,0,0,100,0.00,0.00,7,2,8,0.00
2013-2-19,62.7,44.6,32.8,0.0,0.0,0.0,0,0,100,0.00,0.00,11,2,13,0.00
2013-2-20,49.3,39.8,32.3,0.0,0.0,0.0,0,0,100,0.00,0.00,9,2,11,0.00
2013-2-21,47.0,42.5,38.8,0.0,0.0,0.0,0,0,100,0.00,0.00,14,4,18,0.00
2013-2-22,50.6,42.0,37.1,0.0,0.0,0.0,0,0,100,0.00,0.00,17,5,24,0.00
2013-2-23,63.6,44.5,37.7,0.0,0.0,0.0,0,0,100,0.00,0.00,9,3,12,0.00
2013-2-24,52.7,45.3,40.4,0.0,0.0,0.0,0,0,100,0.00,0.00,13,4,14,0.00
2013-2-25,61.7,44.7,36.5,0.0,0.0,0.0,0,0,100,0.00,0.00,16,5,21,0.00
2013-2-26,55.1,44.4,36.8,0.0,0.0,0.0,0,0,100,0.00,0.00,10,3,13,0.00
2013-2-27,59.5,44.8,37.4,0.0,0.0,0.0,0,0,100,0.00,0.00,9,2,10,0.00
2013-2-28,53.2,47.2,42.0,0.0,0.0,0.0,0,0,100,0.00,0.00,11,2,16,0.00
2013-3-1,64.8,53.9,50.2,0.0,0.0,0.0,0,0,100,0.00,0.00,12,3,17,0.00
2013-3-2,62.8,50.3,37.7,0.0,0.0,0.0,0,0,100,0.00,0.00,12,4,15,0.00
2013-3-3,65.1,44.2,32.7,0.0,0.0,0.0,0,0,100,0.00,0.00,8,2,8,0.00
2013-3-4,63.6,44.0,29.3,0.0,0.0,0.0,0,0,100,0.00,0.00,11,2,13,0.00
2013-3-5,53.9,44.2,35.9,0.0,0.0,0.0,0,0,100,0.00,0.00,8,1,10,0.00
2013-3-6,44.8,41.9,39.9,0.0,0.0,0.0,0,0,100,0.00,0.00,10,2,12,0.00
2013-3-7,65.2,46.8,39.1,0.0,0.0,0.0,0,0,100,0.00,0.00,10,2,11,0.00
2013-3-8,64.3,45.9,33.9,0.0,0.0,0.0,0,0,100,0.00,0.00,10,2,12,0.00
2013-3-9,70.9,46.5,30.8,0.0,0.0,0.0,0,0,100,0.00,0.00,8,1,8,0.00
2013-3-10,52.0,43.4,35.9,0.0,0.0,0.0,0,0,100,0.00,0.00,6,2,7,0.00
2013-3-11,58.7,47.9,40.7,0.0,0.0,0.0,0,0,100,0.00,0.00,8,1,8,0.00
2013-3-12,58.7,52.0,47.2,0.0,0.0,0.0,0,0,100,0.00,0.00,13,4,16,0.00
2013-3-13,52.9,50.6,48.9,0.0,0.0,0.0,0,0,100,0.00,0.00,11,3,14,0.00
2013-3-14,56.3,50.7,47.1,0.0,0.0,0.0,0,0,100,0.00,0.00,10,3,11,0.00
2013-3-15,70.5,53.4,47.4,0.0,0.0,0.0,0,0,100,0.00,0.00,11,3,12,0.00
2013-3-16,59.3,47.3,38.4,0.0,0.0,0.0,0,0,100,0.00,0.00,15,4,22,0.00
2013-3-17,61.9,44.6,34.9,0.0,0.0,0.0,0,0,100,0.00,0.00,11,3,14,0.00
2013-3-18,66.9,46.2,37.2,0.0,0.0,0.0,0,0,100,0.00,0.00,13,4,16,0.00
2013-3-19,65.0,44.0,35.5,0.0,0.0,0.0,0,0,100,0.00,0.00,10,2,12,0.00
2013-3-20,60.3,47.2,37.6,0.0,0.0,0.0,0,0,100,0.00,0.00,18,5,22,0.00
2013-3-21,57.1,41.5,34.1,0.0,0.0,0.0,0,0,100,0.00,0.00,14,3,17,0.00
2013-3-22,61.8,41.9,31.1,0.0,0.0,0.0,0,0,100,0.00,0.00,8,2,10,0.00
2013-3-23,64.2,43.6,33.0,0.0,0.0,0.0,0,0,100,0.00,0.00,7,2,9,0.00
2013-3-24,64.1,43.2,28.6,0.0,0.0,0.0,0,0,100,0.00,0.00,7,1,8,0.00
2013-3-25,70.4,51.6,32.8,0.0,0.0,0.0,0,0,100,0.00,0.00,8,2,9,0.00
2013-3-26,71.7,54.3,45.2,0.0,0.0,0.0,0,0,100,0.00,0.00,7,2,8,0.00
2013-3-27,63.8,50.6,42.0,0.0,0.0,0.0,0,0,100,0.00,0.00,6,1,8,0.00
2013-3-28,75.2,53.9,41.2,0.0,0.0,0.0,0,0,100,0.00,0.00,6,1,7,0.00
2013-3-29,76.9,57.0,42.0,0.0,0.0,0.0,0,0,100,0.00,0.00,7,2,9,0.00
2013-3-30,72.7,55.5,41.5,0.0,0.0,0.0,0,0,100,0.00,0.00,11,3,13,0.00
2013-3-31,77.6,58.8,40.9,0.0,0.0,0.0,0,0,100,0.00,0.00,11,2,14,0.00
2013-4-1,72.9,55.4,46.0,0.0,0.0,0.0,0,0,100,0.00,0.00,11,2,12,0.00
2013-4-2,62.6,53.8,47.8,0.0,0.0,0.0,0,0,100,0.00,0.00,7,2,8,0.00
2013-4-3,76.0,56.9,43.4,0.0,0.0,0.0,0,0,100,0.00,0.00,7,2,8,0.00
2013-4-4,56.6,51.8,48.9,0.0,0.0,0.0,0,0,100,0.00,0.00,8,2,11,0.00
2013-4-5,62.6,52.9,47.1,0.0,0.0,0.0,0,0,100,0.00,0.00,13,4,17,0.00
2013-4-6,61.2,48.7,43.7,0.0,0.0,0.0,0,0,100,0.00,0.00,12,4,16,0.00
2013-4-7,49.8,43.5,39.4,0.0,0.0,0.0,0,0,100,0.00,0.00,9,3,11,0.00
2013-4-8,70.9,50.7,41.0,0.0,0.0,0.0,0,0,100,0.00,0.00,7,2,8,0.00
2013-4-9,62.9,50.3,40.5,0.0,0.0,0.0,0,0,100,0.00,0.00,8,2,10,0.00
2013-4-10,71.6,55.4,46.7,0.0,0.0,0.0,0,0,100,0.00,0.00,13,4,15,0.00
2013-4-11,69.1,49.4,43.9,0.0,0.0,0.0,0,0,100,0.00,0.00,8,3,10,0.00
2013-4-12,50.2,43.7,40.4,0.0,0.0,0.0,0,0,100,0.00,0.00,15,3,22,0.00
2013-4-13,55.8,43.8,36.6,0.0,0.0,0.0,0,0,100,0.00,0.00,14,3,18,0.00
2013-4-14,68.3,49.4,37.2,0.0,0.0,0.0,0,0,100,0.00,0.00,9,2,11,0.00
2013-4-15,66.9,48.8,38.4,0.0,0.0,0.0,0,0,100,0.00,0.00,18,2,19,0.00
2013-4-16,68.6,48.5,34.0,0.0,0.0,0.0,0,0,100,0.00,0.00,16,2,22,0.00
2013-4-17,71.9,51.9,37.7,0.0,0.0,0.0,0,0,100,0.00,0.00,8,2,11,0.00
2013-4-18,58.7,48.3,43.8,0.0,0.0,0.0,0,0,100,0.00,0.00,11,3,13,0.00
2013-4-19,58.8,51.1,47.1,0.0,0.0,0.0,0,0,100,0.00,0.00,10,3,13,0.00
2013-4-20,65.8,51.8,45.8,0.0,0.0,0.0,0,0,100,0.00,0.00,9,3,11,0.00
2013-4-21,66.7,49.4,43.5,0.0,0.0,0.0,0,0,100,0.00,0.00,11,4,15,0.00
2013-4-22,67.4,52.3,36.0,0.0,0.0,0.0,0,0,100,0.00,0.00,12,4,14,0.00
2013-4-23,72.7,53.4,33.8,0.0,0.0,0.0,0,0,100,0.00,0.00,12,2,15,0.00
2013-4-24,78.7,59.0,38.5,0.0,0.0,0.0,0,0,100,0.00,0.00,9,2,10,0.00
2013-4-25,85.4,62.7,40.7,0.0,0.0,0.0,0,0,100,0.00,0.00,8,2,9,0.00
2013-4-26,80.0,59.9,44.6,0.0,0.0,0.0,0,0,100,0.00,0.00,8,2,8,0.00
2013-4-27,60.6,54.5,51.7,0.0,0.0,0.0,0,0,100,0.00,0.00,14,4,18,0.00
2013-4-28,71.2,53.7,47.1,0.0,0.0,0.0,0,0,100,0.00,0.00,14,3,17,0.00
2013-4-29,71.6,50.9,40.9,0.0,0.0,0.0,0,0,100,0.00,0.00,14,4,14,0.00
2013-4-30,69.6,50.8,38.2,0.0,0.0,0.0,0,0,100,0.00,0.00,8,3,11,0.00
2013-5-1,72.6,54.6,35.0,0.0,0.0,0.0,0,0,100,0.00,0.00,9,3,12,0.00
2013-5-2,75.8,58.7,42.3,0.0,0.0,0.0,0,0,100,0.00,0.00,12,3,15,0.00
2013-5-3,79.5,62.0,45.7,0.0,0.0,0.0,0,0,100,0.00,0.00,17,4,19,0.00
2013-5-4,84.7,67.5,49.5,0.0,0.0,0.0,0,0,100,0.00,0.00,14,4,20,0.00
2013-5-5,89.6,71.0,50.7,0.0,0.0,0.0,0,0,100,0.00,0.00,10,3,11,0.00
2013-5-6,96.8,72.6,49.4,0.0,0.0,0.0,0,0,100,0.00,0.00,8,2,10,0.00
2013-5-7,85.4,64.3,51.6,0.0,0.0,0.0,0,0,100,0.00,0.00,8,2,12,0.00
2013-5-8,78.6,60.5,51.0,0.0,0.0,0.0,0,0,100,0.00,0.00,12,2,14,0.00
2013-5-9,80.3,60.6,47.2,0.0,0.0,0.0,0,0,100,0.00,0.00,7,2,9,0.00
2013-5-10,88.1,66.6,46.4,0.0,0.0,0.0,0,0,100,0.00,0.00,7,2,9,0.00
2013-5-11,94.3,70.8,53.5,0.0,0.0,0.0,0,0,100,0.00,0.00,6,2,8,0.00
2013-5-12,84.1,65.3,57.2,0.0,0.0,0.0,0,0,100,0.00,0.00,9,3,12,0.00
2013-5-13,77.1,58.8,47.6,0.0,0.0,0.0,0,0,100,0.00,0.00,17,4,21,0.00
2013-5-14,78.9,59.2,45.2,0.0,0.0,0.0,0,0,100,0.00,0.00,9,2,10,0.00
2013-5-15,77.4,57.2,45.3,0.0,0.0,0.0,0,0,100,0.00,0.00,10,2,10,0.00
2013-5-16,81.4,64.8,52.4,0.0,0.0,0.0,0,0,100,0.00,0.00,8,3,11,0.00
2013-5-17,73.4,59.5,51.7,0.0,0.0,0.0,0,0,100,0.00,0.00,9,3,11,0.00
2013-5-18,78.5,60.2,50.3,0.0,0.0,0.0,0,0,100,0.00,0.00,9,2,10,0.00
2013-5-19,74.9,60.3,52.9,0.0,0.0,0.0,0,0,100,0.00,0.00,10,3,11,0.00
2013-5-20,81.9,60.5,45.0,0.0,0.0,0.0,0,0,100,0.00,0.00,9,2,10,0.00
2013-5-21,69.2,52.2,44.8,0.0,0.0,0.0,0,0,100,0.00,0.00,10,3,10,0.00
2013-5-22,64.3,49.3,43.7,0.0,0.0,0.0,0,0,100,0.00,0.00,10,3,11,0.00
2013-5-23,68.7,51.1,43.0,0.0,0.0,0.0,0,0,100,0.00,0.00,10,2,12,0.00
2013-5-24,74.3,57.4,45.7,0.0,0.0,0.0,0,0,100,0.00,0.00,8,2,10,0.00
2013-5-25,75.7,59.1,50.1,0.0,0.0,0.0,0,0,100,0.00,0.00,7,2,8,0.00
2013-5-26,75.3,58.3,49.1,0.0,0.0,0.0,0,0,100,0.00,0.00,8,2,10,0.00
2013-5-27,63.7,55.9,49.5,0.0,0.0,0.0,0,0,100,0.00,0.00,8,2,10,0.00
2013-5-28,74.2,58.6,50.5,0.0,0.0,0.0,0,0,100,0.00,0.00,10,3,12,0.00
2013-5-29,71.3,56.5,48.1,0.0,0.0,0.0,0,0,100,0.00,0.00,13,2,17,0.00
2013-5-30,72.5,57.6,48.0,0.0,0.0,0.0,0,0,100,0.00,0.00,11,4,14,0.00
2013-5-31,77.7,62.1,49.2,0.0,0.0,0.0,0,0,100,0.00,0.00,8,2,10,0.00
2013-6-1,85.9,65.4,51.7,0.0,0.0,0.0,0,0,100,0.00,0.00,10,3,10,0.00
2013-6-2,78.9,65.1,52.6,0.0,0.0,0.0,0,0,100,0.00,0.00,10,3,12,0.00
2013-6-3,84.1,64.7,50.7,0.0,0.0,0.0,0,0,100,0.00,0.00,7,2,9,0.00
2013-6-4,86.1,69.4,52.4,0.0,0.0,0.0,0,0,100,0.00,0.00,10,3,11,0.00
2013-6-5,87.1,69.7,52.9,0.0,0.0,0.0,0,0,100,0.00,0.00,9,3,10,0.00
2013-6-6,90.4,70.8,51.0,0.0,0.0,0.0,0,0,100,0.00,0.00,9,3,12,0.00
2013-6-7,75.9,63.9,55.5,0.0,0.0,0.0,0,0,100,0.00,0.00,11,3,13,0.00
2013-6-8,77.8,63.5,54.0,0.0,0.0,0.0,0,0,100,0.00,0.00,11,4,12,0.00
2013-6-9,80.2,62.3,52.7,0.0,0.0,0.0,0,0,100,0.00,0.00,9,4,10,0.00
2013-6-10,82.3,65.1,49.1,0.0,0.0,0.0,0,0,100,0.00,0.00,8,3,9,0.00
2013-6-11,79.2,62.4,50.0,0.0,0.0,0.0,0,0,100,0.00,0.00,12,4,16,0.00
2013-6-12,81.8,64.0,51.3,0.0,0.0,0.0,0,0,100,0.00,0.00,11,3,14,0.00
2013-6-13,80.4,63.5,51.9,0.0,0.0,0.0,0,0,100,0.00,0.00,8,2,10,0.00
2013-6-14,81.3,64.0,54.3,0.0,0.0,0.0,0,0,100,0.00,0.00,9,3,10,0.00
2013-6-15,83.0,66.5,50.3,0.0,0.0,0.0,0,0,100,0.00,0.00,9,3,12,0.00
2013-6-16,87.0,68.8,54.2,0.0,0.0,0.0,0,0,100,0.00,0.00,9,2,10,0.00
2013-6-17,89.3,70.0,56.3,0.0,0.0,0.0,0,0,100,0.00,0.00,14,3,17,0.00
2013-6-18,88.6,69.1,54.3,0.0,0.0,0.0,0,0,100,0.00,0.00,10,3,12,0.00
2013-6-19,79.6,61.8,52.8,0.0,0.0,0.0,0,0,100,0.00,0.00,8,2,10,0.00
2013-6-20,66.1,57.7,52.5,0.0,0.0,0.0,0,0,100,0.00,0.00,8,3,10,0.00
2013-6-21,80.2,63.9,52.7,0.0,0.0,0.0,0,0,100,0.00,0.00,7,2,7,0.00
2013-6-22,89.8,70.9,52.0,0.0,0.0,0.0,0,0,100,0.00,0.00,8,2,9,0.00
2013-6-23,77.0,65.5,58.0,0.0,0.0,0.0,0,0,100,0.00,0.00,6,2,7,0.00
2013-6-24,79.9,64.9,55.2,0.0,0.0,0.0,0,0,100,0.00,0.00,12,3,17,0.00
2013-6-25,85.3,65.1,55.6,0.0,0.0,0.0,0,0,100,0.00,0.00,13,2,18,0.00
2013-6-26,82.6,66.5,56.1,0.0,0.0,0.0,0,0,100,0.00,0.00,9,2,10,0.00
2013-6-27,74.9,65.3,57.8,0.0,0.0,0.0,0,0,100,0.00,0.00,5,1,5,0.00
2013-6-28,96.9,76.2,59.1,0.0,0.0,0.0,0,0,100,0.00,0.00,8,2,10,0.00
2013-6-29,94.9,77.0,61.7,0.0,0.0,0.0,0,0,100,0.00,0.00,7,2,9,0.00
2013-6-30,98.3,78.8,59.5,0.0,0.0,0.0,0,0,100,0.00,0.00,9,3,11,0.00
2013-7-1,98.5,80.7,64.0,0.0,0.0,0.0,0,0,100,0.00,0.00,8,2,8,0.00
2013-7-2,89.6,74.8,59.0,0.0,0.0,0.0,0,0,100,0.00,0.00,13,2,16,0.00
2013-7-3,87.5,72.7,60.2,0.0,0.0,0.0,0,0,100,0.00,0.00,10,4,12,0.00
2013-7-4,86.7,67.4,58.8,0.0,0.0,0.0,0,0,100,0.00,0.00,8,2,8,0.00
2013-7-5,88.2,69.6,55.0,0.0,0.0,0.0,0,0,100,0.00,0.00,7,2,9,0.00
2013-7-6,87.5,70.9,53.6,0.0,0.0,0.0,0,0,100,0.00,0.00,9,2,11,0.00
2013-7-7,89.7,69.7,56.1,0.0,0.0,0.0,0,0,100,0.00,0.00,6,2,8,0.00
2013-7-8,90.7,70.7,55.5,0.0,0.0,0.0,0,0,100,0.00,0.00,7,2,9,0.00
2013-7-9,91.4,74.1,56.4,0.0,0.0,0.0,0,0,100,0.00,0.00,10,3,12,0.00
2013-7-10,84.8,67.7,57.0,0.0,0.0,0.0,0,0,100,0.00,0.00,9,3,10,0.00
2013-7-11,86.0,65.3,55.7,0.0,0.0,0.0,0,0,100,0.00,0.00,10,4,11,0.00
2013-7-12,79.0,62.9,53.6,0.0,0.0,0.0,0,0,100,0.00,0.00,8,2,9,0.00
2013-7-13,84.1,68.2,48.3,0.0,0.0,0.0,0,0,100,0.00,0.00,10,3,12,0.00
2013-7-14,94.8,72.3,50.1,0.0,0.0,0.0,0,0,100,0.00,0.00,10,3,13,0.00
2013-7-15,87.0,73.1,57.0,0.0,0.0,0.0,0,0,100,0.00,0.00,11,5,14,0.00
2013-7-16,92.6,76.0,61.9,0.0,0.0,0.0,0,0,100,0.00,0.00,10,4,12,0.00
2013-7-17,84.2,69.3,58.4,0.0,0.0,0.0,0,0,100,0.00,0.00,10,3,12,0.00
2013-7-18,88.5,70.3,54.8,0.0,0.0,0.0,0,0,100,0.00,0.00,7,2,9,0.00
2013-7-19,90.3,70.7,55.6,0.0,0.0,0.0,0,0,100,0.00,0.00,7,3,9,0.00
2013-7-20,86.2,67.7,53.8,0.0,0.0,0.0,0,0,100,0.00,0.00,7,2,7,0.00
2013-7-21,88.8,68.9,55.0,0.0,0.0,0.0,0,0,100,0.00,0.00,6,2,7,0.00
2013-7-22,88.8,69.9,56.4,0.0,0.0,0.0,0,0,100,0.00,0.00,10,2,11,0.00
2013-7-23,91.1,72.0,53.8,0.0,0.0,0.0,0,0,100,0.00,0.00,9,3,11,0.00
2013-7-24,94.1,75.0,55.1,0.0,0.0,0.0,0,0,100,0.00,0.00,8,3,10,0.00
2013-7-25,95.4,73.9,54.0,0.0,0.0,0.0,0,0,100,0.00,0.00,8,3,8,0.00
2013-7-26,94.7,74.8,55.5,0.0,0.0,0.0,0,0,100,0.00,0.00,12,3,14,0.00
2013-7-27,89.4,70.6,53.5,0.0,0.0,0.0,0,0,100,0.00,0.00,9,2,10,0.00
2013-7-28,80.4,63.9,53.2,0.0,0.0,0.0,0,0,100,0.00,0.00,9,3,12,0.00
2013-7-29,88.0,68.7,54.3,0.0,0.0,0.0,0,0,100,0.00,0.00,7,2,9,0.00
2013-7-30,90.4,70.0,55.1,0.0,0.0,0.0,0,0,100,0.00,0.00,7,2,8,0.00
2013-7-31,81.7,65.1,55.6,0.0,0.0,0.0,0,0,100,0.00,0.00,7,2,8,0.00
2013-8-1,75.4,63.6,55.7,0.0,0.0,0.0,0,0,100,0.00,0.00,8,3,10,0.00
2013-8-2,64.2,60.8,58.1,0.0,0.0,0.0,0,0,100,0.00,0.00,6,2,9,0.00
2013-8-3,87.3,68.5,58.4,0.0,0.0,0.0,0,0,100,0.00,0.00,7,2,9,0.00
2013-8-4,87.2,71.4,55.0,0.0,0.0,0.0,0,0,100,0.00,0.00,10,3,12,0.00
2013-8-5,96.6,75.1,57.5,0.0,0.0,0.0,0,0,100,0.00,0.00,8,2,9,0.00
2013-8-6,97.4,73.6,53.9,0.0,0.0,0.0,0,0,100,0.00,0.00,7,2,9,0.00
2013-8-7,95.4,74.0,54.3,0.0,0.0,0.0,0,0,100,0.00,0.00,8,2,10,0.00
2013-8-8,93.9,72.1,57.2,0.0,0.0,0.0,0,0,100,0.00,0.00,7,2,9,0.00
2013-8-9,92.0,72.7,56.5,0.0,0.0,0.0,0,0,100,0.00,0.00,8,2,9,0.00
2013-8-10,90.6,69.5,58.9,0.0,0.0,0.0,0,0,100,0.00,0.00,8,2,10,0.00
2013-8-11,88.7,70.0,56.4,0.0,0.0,0.0,0,0,100,0.00,0.00,7,3,8,0.00
2013-8-12,89.6,71.1,56.9,0.0,0.0,0.0,0,0,100,0.00,0.00,7,2,10,0.00
2013-8-13,92.4,72.4,55.0,0.0,0.0,0.0,0,0,100,0.00,0.00,8,2,9,0.00
2013-8-14,93.7,69.5,55.0,0.0,0.0,0.0,0,0,100,0.00,0.00,7,2,8,0.00
2013-8-15,76.8,66.8,59.8,0.0,0.0,0.0,0,0,100,0.00,0.00,5,1,7,0.00
2013-8-16,96.0,75.3,58.9,0.0,0.0,0.0,0,0,100,0.00,0.00,6,2,7,0.00
2013-8-17,91.7,73.1,60.5,0.0,0.0,0.0,0,0,100,0.00,0.00,8,3,10,0.00
2013-8-18,90.6,72.0,58.1,0.0,0.0,0.0,0,0,100,0.00,0.00,9,3,10,0.00
2013-8-19,91.1,71.3,56.9,0.0,0.0,0.0,0,0,100,0.00,0.00,10,3,12,0.00
2013-8-20,84.8,68.4,58.9,0.0,0.0,0.0,0,0,100,0.00,0.00,9,4,12,0.00
2013-8-21,85.7,70.5,55.3,0.0,0.0,0.0,0,0,100,0.00,0.00,10,4,14,0.00
2013-8-22,92.3,74.4,56.2,0.0,0.0,0.0,0,0,100,0.00,0.00,8,2,10,0.00
2013-8-23,86.7,70.0,60.8,0.0,0.0,0.0,0,0,100,0.00,0.00,10,3,11,0.00
2013-8-24,93.3,69.6,59.3,0.0,0.0,0.0,0,0,100,0.00,0.00,7,2,8,0.00
2013-8-25,83.9,67.3,55.8,0.0,0.0,0.0,0,0,100,0.00,0.00,7,2,7,0.00
2013-8-26,88.1,68.1,59.7,0.0,0.0,0.0,0,0,100,0.00,0.00,10,2,12,0.00
2013-8-27,91.6,72.0,60.6,0.0,0.0,0.0,0,0,100,0.00,0.00,8,2,10,0.00
2013-8-28,92.3,72.9,58.3,0.0,0.0,0.0,0,0,100,0.00,0.00,6,1,7,0.00
2013-8-29,85.0,68.2,62.6,0.0,0.0,0.0,0,0,100,0.00,0.00,9,2,10,0.00
2013-8-30,91.8,72.4,59.7,0.0,0.0,0.0,0,0,100,0.00,0.00,8,3,10,0.00
2013-8-31,84.9,69.1,54.3,0.0,0.0,0.0,0,0,100,0.00,0.00,10,2,12,0.00
2013-9-1,94.6,73.2,56.4,0.0,0.0,0.0,0,0,100,0.00,0.00,7,2,8,0.00
2013-9-2,96.5,74.2,58.2,0.0,0.0,0.0,0,0,100,0.00,0.00,7,2,8,0.00
2013-9-3,87.0,67.7,60.2,0.0,0.0,0.0,0,0,100,0.00,0.00,7,2,8,0.00
2013-9-4,82.5,66.1,58.4,0.0,0.0,0.0,0,0,100,0.00,0.00,8,2,10,0.00
2013-9-5,77.1,63.1,58.4,0.0,0.0,0.0,0,0,100,0.00,0.00,11,2,12,0.00
2013-9-6,86.2,65.5,59.6,0.0,0.0,0.0,0,0,100,0.00,0.00,9,2,12,0.00
2013-9-7,84.2,67.0,59.0,0.0,0.0,0.0,0,0,100,0.00,0.00,6,2,8,0.00
2013-9-8,92.2,70.1,55.4,0.0,0.0,0.0,0,0,100,0.00,0.00,6,2,7,0.00
2013-9-9,86.4,67.1,56.4,0.0,0.0,0.0,0,0,100,0.00,0.00,8,2,9,0.00
2013-9-10,83.8,68.2,55.1,0.0,0.0,0.0,0,0,100,0.00,0.00,10,3,12,0.00
2013-9-11,97.6,75.6,57.1,0.0,0.0,0.0,0,0,100,0.00,0.00,8,2,10,0.00
2013-9-12,91.8,69.7,58.5,0.0,0.0,0.0,0,0,100,0.00,0.00,7,1,8,0.00
2013-9-13,71.6,64.1,58.4,0.0,0.0,0.0,0,0,100,0.00,0.00,5,1,6,0.00
2013-9-14,80.6,64.7,58.3,0.0,0.0,0.0,0,0,100,0.00,0.00,7,2,8,0.00
2013-9-15,73.8,61.5,56.4,0.0,0.0,0.0,0,0,100,0.00,0.00,8,2,10,0.00
2013-9-16,81.1,64.2,58.5,0.0,0.0,0.0,0,0,100,0.00,0.00,12,3,12,0.00
2013-9-17,70.0,61.2,56.6,0.0,0.0,0.0,0,0,100,0.00,0.00,7,2,8,0.00
2013-9-18,83.8,68.1,52.1,0.0,0.0,0.0,0,0,100,0.00,0.00,8,2,9,0.00
2013-9-19,88.6,65.0,47.0,0.0,0.0,0.0,0,0,100,0.00,0.00,7,1,7,0.00
2013-9-20,89.7,64.9,52.8,0.0,0.0,0.0,0,0,100,0.00,0.00,9,2,12,0.00
2013-9-21,82.3,64.7,53.9,0.0,0.0,0.0,0,0,100,0.00,0.00,7,2,9,0.00
2013-11-19,46.6,43.0,38.1,0.0,0.0,0.0,0,0,100,0.00,0.00,13,5,15,0.00
2013-11-20,53.9,39.5,30.8,0.0,0.0,0.0,0,0,100,0.00,0.00,11,4,13,0.00
2013-11-21,55.4,38.0,27.5,0.0,0.0,0.0,0,0,100,0.00,0.00,9,3,10,0.00
2013-11-22,55.3,38.5,28.5,0.0,0.0,0.0,0,0,100,0.00,0.00,8,3,10,0.00
2013-11-23,60.1,39.6,27.5,0.0,0.0,0.0,0,0,100,0.00,0.00,6,1,8,0.00
2013-11-24,61.4,40.5,27.5,0.0,0.0,0.0,0,0,100,0.00,0.00,5,1,6,0.00
2013-11-25,65.5,42.0,32.1,0.0,0.0,0.0,0,0,100,0.00,0.00,3,1,4,0.00
2013-11-26,66.3,44.6,33.2,0.0,0.0,0.0,0,0,100,0.00,0.00,5,1,6,0.00
2013-11-27,67.3,46.8,35.5,0.0,0.0,0.0,0,0,100,0.00,0.00,6,1,7,0.00
2013-11-28,51.6,38.7,33.9,0.0,0.0,0.0,0,0,100,0.00,0.00,4,1,5,0.00
2013-11-29,48.4,43.6,36.0,0.0,0.0,0.0,0,0,100,0.00,0.00,5,1,6,0.00
2013-11-30,51.8,47.8,43.4,0.0,0.0,0.0,0,0,100,0.00,0.00,11,3,16,0.00
2013-12-1,53.6,50.7,43.7,0.0,0.0,0.0,0,0,100,0.00,0.00,18,5,27,0.00
2013-12-2,57.3,41.2,34.1,0.0,0.0,0.0,0,0,100,0.00,0.00,10,2,10,0.00
2013-12-3,49.8,36.6,25.8,0.0,0.0,0.0,0,0,100,0.00,0.00,15,5,19,0.00
2013-12-4,53.5,31.8,22.2,0.0,0.0,0.0,0,0,100,0.00,0.00,5,1,6,0.00
2013-12-5,25.0,22.2,20.2,0.0,0.0,0.0,0,0,100,0.00,0.00,2,0,3,0.00